| time (UTC) | temp F | wind direction | speed knots | gust knots | rain 1hr in | rain 24hr in | rain mn in | humidity % | barometer mb |
| 20260503184550 | 62 | 229 | 12.2 | 21.7 | 0.00 | 0.00 | 0.00 | 50 | 1016.7 |
| 20260503183049 | 62 | 173 | 13.9 | 24.3 | 0.00 | 0.00 | 0.00 | 47 | 1017.1 |
| 20260503181600 | 62 | 178 | 11.3 | 20.9 | 0.00 | 0.00 | 0.00 | 50 | 1017.4 |
| 20260503180049 | 61 | 187 | 14.8 | 22.6 | 0.00 | 0.00 | 0.00 | 48 | 1017.9 |
| 20260503174551 | 61 | 185 | 11.3 | 21.7 | 0.00 | 0.00 | 0.00 | 49 | 1018.2 |
| 20260503173056 | 61 | 213 | 11.3 | 20.0 | 0.00 | 0.00 | 0.00 | 50 | 1018.5 |
| 20260503171547 | 60 | 232 | 14.8 | 20.9 | 0.00 | 0.00 | 0.00 | 50 | 1018.7 |
| 20260503081550 | 37 | 144 | 2.6 | 3.5 | 0.00 | 0.00 | 0.00 | 91 | 1019.5 |
| 20260503071559 | 37 | 144 | 2.6 | 3.5 | 0.00 | 0.00 | 0.00 | 90 | 1019.4 |
| 20260503060106 | 38 | 144 | 0.9 | 3.5 | 0.00 | 0.00 | 0.00 | 88 | 1019.9 |
| 20260503054549 | 39 | 144 | 2.6 | 3.5 | 0.00 | 0.00 | 0.00 | 86 | 1019.9 |
| 20260503053047 | 39 | 144 | 3.5 | 4.3 | 0.00 | 0.00 | 0.00 | 85 | 1019.9 |
| 20260503051550 | 39 | 173 | 3.5 | 4.3 | 0.00 | 0.00 | 0.00 | 85 | 1020.0 |
| 20260503050047 | 40 | 170 | 1.7 | 2.6 | 0.00 | 0.00 | 0.00 | 85 | 1019.8 |
| 20260503044558 | 40 | 196 | 0.9 | 1.7 | 0.00 | 0.00 | 0.00 | 84 | 1020.0 |
| 20260503043055 | 41 | 196 | 0.9 | 2.6 | 0.00 | 0.00 | 0.00 | 86 | 1019.8 |
| 20260503041550 | 40 | 196 | 0.9 | 2.6 | 0.00 | 0.00 | 0.00 | 84 | 1019.8 |
| 20260503040049 | 41 | 196 | 0.9 | 2.6 | 0.00 | 0.00 | 0.00 | 81 | 1020.0 |
| 20260503034550 | 42 | 196 | 0.9 | 1.7 | 0.00 | 0.00 | 0.00 | 79 | 1020.0 |
| 20260503033056 | 42 | 196 | 0.9 | 1.7 | 0.00 | 0.00 | 0.00 | 79 | 1019.8 |
| 20260503031545 | 43 | 196 | 0.9 | 1.7 | 0.00 | 0.00 | 0.00 | 79 | 1019.9 |
| 20260503030051 | 43 | 196 | 0.9 | 1.7 | 0.00 | 0.00 | 0.00 | 77 | 1020.0 |
| 20260503024554 | 44 | 196 | 0.0 | 1.7 | 0.00 | 0.00 | 0.00 | 73 | 1019.9 |
| 20260503023058 | 44 | 196 | 0.9 | 2.6 | 0.00 | 0.00 | 0.00 | 73 | 1019.9 |
| 20260503021555 | 45 | 196 | 0.9 | 2.6 | 0.00 | 0.00 | 0.00 | 70 | 1019.9 |
| 20260503020045 | 46 | 194 | 0.9 | 2.6 | 0.00 | 0.00 | 0.00 | 69 | 1019.7 |
| 20260503014548 | 47 | 188 | 0.0 | 1.7 | 0.00 | 0.00 | 0.00 | 67 | 1019.5 |
| 20260503013049 | 48 | 336 | 0.0 | 1.7 | 0.00 | 0.00 | 0.00 | 66 | 1019.1 |
| 20260503011600 | 49 | 341 | 1.7 | 3.5 | 0.00 | 0.00 | 0.00 | 58 | 1019.0 |
| 20260503010054 | 50 | 340 | 2.6 | 4.3 | 0.00 | 0.00 | 0.00 | 56 | 1019.1 |
| 20260503004546 | 51 | 342 | 4.3 | 7.8 | 0.00 | 0.00 | 0.00 | 52 | 1018.9 |
| 20260503003058 | 52 | 351 | 6.1 | 7.8 | 0.00 | 0.00 | 0.00 | 47 | 1018.9 |
| 20260503001546 | 53 | 355 | 7.8 | 13.0 | 0.00 | 0.00 | 0.00 | 45 | 1018.9 |
| 20260503000103 | 54 | 348 | 10.4 | 14.8 | 0.00 | 0.00 | 0.00 | 43 | 1018.8 |
| 20260502234551 | 55 | 340 | 6.1 | 12.2 | 0.00 | 0.00 | 0.00 | 41 | 1018.7 |
| 20260502233050 | 55 | 19 | 5.2 | 11.3 | 0.00 | 0.00 | 0.00 | 43 | 1018.6 |
| 20260502231549 | 55 | 328 | 12.2 | 17.4 | 0.00 | 0.00 | 0.00 | 39 | 1018.7 |
| 20260502230052 | 56 | 360 | 5.2 | 11.3 | 0.00 | 0.00 | 0.00 | 39 | 1018.7 |
| 20260502224547 | 55 | 294 | 6.1 | 13.9 | 0.00 | 0.00 | 0.00 | 41 | 1018.7 |
| 20260502223048 | 55 | 315 | 10.4 | 17.4 | 0.00 | 0.00 | 0.00 | 40 | 1018.8 |
| 20260502221552 | 55 | 292 | 9.6 | 16.5 | 0.00 | 0.00 | 0.00 | 43 | 1018.7 |
| 20260502220051 | 55 | 331 | 10.4 | 14.8 | 0.00 | 0.00 | 0.00 | 41 | 1018.8 |
| 20260502214553 | 55 | 325 | 8.7 | 14.8 | 0.00 | 0.00 | 0.00 | 41 | 1018.6 |
| 20260502213050 | 56 | 340 | 10.4 | 19.1 | 0.00 | 0.00 | 0.00 | 41 | 1018.5 |
| 20260502211555 | 56 | 327 | 9.6 | 17.4 | 0.00 | 0.00 | 0.00 | 39 | 1018.5 |
| 20260502210047 | 58 | 308 | 11.3 | 16.5 | 0.00 | 0.00 | 0.00 | 39 | 1018.5 |
| 20260502204548 | 57 | 329 | 7.8 | 14.8 | 0.00 | 0.00 | 0.00 | 42 | 1018.5 |
| 20260502203047 | 55 | 332 | 10.4 | 16.5 | 0.00 | 0.00 | 0.00 | 43 | 1018.6 |
| 20260502201544 | 57 | 281 | 9.6 | 18.2 | 0.00 | 0.00 | 0.00 | 42 | 1018.7 |
| 20260502200054 | 56 | 336 | 7.0 | 14.8 | 0.00 | 0.00 | 0.00 | 41 | 1018.7 |
| 20260502194546 | 57 | 301 | 10.4 | 14.8 | 0.00 | 0.00 | 0.00 | 41 | 1018.7 |
| 20260502193050 | 56 | 296 | 7.0 | 16.5 | 0.00 | 0.00 | 0.00 | 43 | 1018.7 |
| 20260502191557 | 56 | 312 | 5.2 | 12.2 | 0.00 | 0.00 | 0.00 | 45 | 1018.9 |
| 20260502190047 | 56 | 323 | 6.1 | 20.0 | 0.00 | 0.00 | 0.00 | 45 | 1019.0 |